sat.trackr.live / text

‹ back to catalog

STARLINK-32348

NORAD 61631 · 2024-191L

PAYLOAD ACTIVE UNKNOWN

§ Identity

Operator
Country
US
Launch date
2024-10-23
Launch site
AFETR
Launch vehicle
Mass (kg)
RCS (m²)

Purposes: comms

External: N2YO · Heavens-Above · Gunter

§ Orbital elements

Epoch: 2026-05-25T02:45:46.571040Z

Period
94.27 min
Inclination
43.0019°
Eccentricity
0.0001030
Mean motion
15.27579030 rev/d
Perigee alt
482.3 km
Apogee alt
483.8 km
Semi-major
6,861.2 km
B*
2.6204e-5
RAAN
86.4463°
Arg perigee
254.5300°
Mean anomaly
105.5438°
Rev number
8,918

§ Raw data

STARLINK-323481 61631U 24191L   26145.11512235  .00000459  00000+0  26204-4 0  99972 61631  43.0019  86.4463 0001030 254.5300 105.5438 15.27579030 89181

JSON: /api/v1/satellites/61631 · /tle

For live sub-satellite position, see the globe view (requires WebGL).

§ Visibility from observer

Set your observer location to see the next 7 days of passes ≥ 10°. The values pass through the URL so the page stays shareable.

No JS? Fill the form by hand. The geolocation button needs JavaScript.